Flag for Brazil Weather past 2 weeks in Tabatinga, Amazonas, Brazil

Now
77 °F

Partly cloudy.


Feels Like: 78 °F
Forecast: 75 / 89 °F
Wind: No wind

Location: Leticia / Vasquez Cobo

Current Time: Sep 2, 2015 at 7:56:07 PM

Latest Report: Sep 2, 2015 at 7:00 PM


Visibility: N/A

Pressure: 29.89 "Hg

Humidity: 94%

Dew point: 75 °F

Location of TabatingaLocation

Historic Weather in Tabatinga — Graph

°F

Tabatinga temperature yesterday

Maximum temperature yesterday: 84 °F (at 1:00 PM)
Minimum temperature yesterday: 73 °F (at 3:00 AM)
Average temperature yesterday: 78 °F

Past Weeks' High & Low Weather Summary

 TemperatureHumidityPressure
High95 °F (Aug 25, 3:00 PM)100% (Aug 19, 8:00 AM)30.02 "Hg (Aug 19, 8:00 AM)
Low70 °F (Aug 23, 1:00 PM)59% (Aug 24, 4:00 PM)29.72 "Hg (Aug 25, 4:00 PM)
Average80 °F88%29.87 "Hg
* Reported Aug 18 7:00 PM — Sep 2 7:00 PM, Tabatinga, Weather by CustomWeather, © 2015

Note: Actual official high and low records may vary slightly from our data, if they occured in-between our weather recording intervals... More about our weather records

Advertising

Tabatinga weather history for previous 24 hours

 ConditionsComfort  
Time TempWeatherWind HumidityBarometerVisibility
7:00 PM
Wed, Sep 2
77 °FPartly cloudy.No wind94%29.89 "HgN/A
6:00 PM77 °FPartly cloudy.No wind94%29.86 "HgN/A
5:00 PM79 °FBroken clouds.No wind89%29.85 "HgN/A
4:00 PM84 °FScattered showers. Scattered clouds.No wind74%29.86 "HgN/A
3:00 PM86 °FScattered showers. Scattered clouds.No wind79%29.88 "HgN/A
2:00 PM84 °FScattered clouds.No wind74%29.93 "HgN/A
1:00 PM79 °FThunderstorms. Partly sunny.No wind84%29.97 "Hg4 mi
12:00 PM86 °FBroken clouds.3 mph75%29.98 "HgN/A
11:00 AM84 °FPartly sunny.3 mph84%29.99 "HgN/A
10:00 AM82 °FBroken clouds.2 mph84%30.00 "HgN/A
9:00 AM81 °FPartly sunny.No wind84%29.99 "HgN/A
8:00 AM77 °FBroken clouds.No wind94%29.97 "HgN/A
7:00 AM75 °FBroken clouds.No wind94%29.96 "HgN/A
6:00 AM75 °FBroken clouds.No wind94%29.96 "HgN/A
5:00 AM75 °FPartly cloudy.No wind94%29.96 "HgN/A
4:00 AM75 °FPartly cloudy.No wind94%29.96 "HgN/A
2:00 AM75 °FPartly cloudy.No wind94%29.95 "HgN/A
1:00 AM75 °FPartly cloudy.No wind100%29.96 "HgN/A
12:00 AM75 °FPassing clouds.No wind94%29.97 "HgN/A
11:00 PM
Tue, Sep 1
75 °FPassing clouds.No wind100%29.97 "HgN/A
10:00 PM77 °FPassing clouds.No wind94%29.96 "HgN/A
9:00 PM77 °FClear.No wind94%29.93 "Hg10 mi
8:00 PM79 °FClear.No wind94%29.91 "Hg10 mi
7:00 PM81 °FClear.No wind89%29.89 "Hg10 mi
Weather by CustomWeather, © 2015

See weather overviewHow to use our weather pages